Location: Bacharowice
(49.9333°N, 19.5833°E)
Time: 04:49:45
(UTC+00:00)

Envisat - Pass Details

Date: 04 October 2022
Orbit: 763 x 765 km, 98.2° (Epoch: 09 December)

Event Time Altitude Azimuth Distance (km) Brightness Sun altitude
Rises 03:18:52 0° 13° (NNE) 3,247 6.6 -14.8°
Reaches altitude 10° 03:21:11 10° 13° (NNE) 2,316 5.8 -14.4°
Maximum altitude 03:26:18 84° 286° (WNW) 777 2.9 -13.6°
Drops below altitude 10° 03:31:22 10° 199° (SSW) 2,298 5.2 -12.8°
Sets 03:33:40 0° 198° (SSW) 3,220 6.0 -12.4°
